Time,TemperatureF,DewpointF,PressureIn,WindDirection,WindDirectionDegrees,WindSpeedMPH,WindSpeedGustMPH,Humidity,HourlyPrecipIn,Conditions,Clouds,dailyrainin,SoftwareType,DateUTC
2013-09-08 00:03:00,73.0,66.0,29.85,West,260,0.0,0.0,79,0.00,,,0.00,,2013-09-08 05:03:00,
2013-09-08 00:13:00,73.0,66.0,29.85,West,260,0.0,0.0,79,0.00,,,0.00,,2013-09-08 05:13:00,
2013-09-08 00:23:00,73.0,67.0,29.85,West,260,0.0,0.0,81,0.00,,,0.00,,2013-09-08 05:23:00,
2013-09-08 00:52:00,72.0,66.0,29.85,West,260,0.0,0.0,82,0.00,,,0.00,,2013-09-08 05:52:00,
2013-09-08 01:13:00,72.0,66.0,29.85,West,260,0.0,0.0,81,0.00,,,0.00,,2013-09-08 06:13:00,
2013-09-08 01:21:00,73.0,67.0,29.86,West,260,0.0,0.0,81,0.00,,,0.00,,2013-09-08 06:21:00,
2013-09-08 01:53:00,73.0,67.0,29.87,West,260,0.0,0.0,81,0.00,,,0.00,,2013-09-08 06:53:00,
2013-09-08 02:01:00,73.0,67.0,29.87,West,260,0.0,0.0,81,0.00,,,0.00,,2013-09-08 07:01:00,
2013-09-08 02:12:00,73.0,67.0,29.87,West,260,0.0,0.0,81,0.00,,,0.00,,2013-09-08 07:12:00,
2013-09-08 02:23:00,72.0,67.0,29.85,West,260,0.0,0.0,83,0.00,,,0.00,,2013-09-08 07:23:00,
2013-09-08 02:52:00,71.0,66.0,29.85,West,260,0.0,0.0,83,0.00,,,0.00,,2013-09-08 07:52:00,
2013-09-08 03:22:00,70.0,65.0,29.85,West,260,0.0,0.0,85,0.00,,,0.00,,2013-09-08 08:22:00,
2013-09-08 03:52:00,70.0,66.0,29.85,West,260,0.0,0.0,86,0.00,,,0.00,,2013-09-08 08:52:00,
2013-09-08 04:11:00,70.0,66.0,29.85,West,260,0.0,0.0,86,0.00,,,0.00,,2013-09-08 09:11:00,
2013-09-08 04:22:00,70.0,66.0,29.85,West,260,0.0,0.0,86,0.00,,,0.00,,2013-09-08 09:22:00,
2013-09-08 04:54:00,69.0,65.0,29.85,West,260,0.0,0.0,87,0.00,,,0.00,,2013-09-08 09:54:00,
2013-09-08 05:12:00,69.0,65.0,29.85,West,260,0.0,0.0,88,0.00,,,0.00,,2013-09-08 10:12:00,
2013-09-08 05:23:00,69.0,66.0,29.85,West,260,0.0,0.0,89,0.00,,,0.00,,2013-09-08 10:23:00,
2013-09-08 05:53:00,69.0,66.0,29.87,West,260,0.0,0.0,89,0.00,,,0.00,,2013-09-08 10:53:00,
2013-09-08 06:12:00,69.0,66.0,29.87,West,260,0.0,0.0,90,0.00,,,0.00,,2013-09-08 11:12:00,
2013-09-08 06:21:00,69.0,66.0,29.85,West,260,0.0,0.0,90,0.00,,,0.00,,2013-09-08 11:21:00,
2013-09-08 06:52:00,69.0,66.0,29.87,West,260,0.0,1.0,90,0.00,,,0.00,,2013-09-08 11:52:00,
2013-09-08 07:12:00,69.0,66.0,29.87,West,260,0.0,0.0,90,0.00,,,0.00,,2013-09-08 12:12:00,
2013-09-08 07:22:00,69.0,66.0,29.89,West,260,0.0,3.0,90,0.00,,,0.00,,2013-09-08 12:22:00,
2013-09-08 07:52:00,70.0,67.0,29.88,West,260,0.0,0.0,90,0.00,,,0.00,,2013-09-08 12:52:00,
2013-09-08 08:12:00,70.0,67.0,29.88,West,260,0.0,0.0,90,0.00,,,0.00,,2013-09-08 13:12:00,
2013-09-08 08:22:00,71.0,67.0,29.89,NE,47,0.0,3.0,88,0.00,,,0.00,,2013-09-08 13:22:00,
2013-09-08 08:42:00,71.0,67.0,29.89,SE,133,0.0,3.0,88,0.00,,,0.00,,2013-09-08 13:42:00,
2013-09-08 08:52:00,73.0,68.0,29.88,SE,133,1.0,3.0,85,0.00,,,0.00,,2013-09-08 13:52:00,
2013-09-08 09:11:00,73.0,68.0,29.88,SE,133,0.0,0.0,85,0.00,,,0.00,,2013-09-08 14:11:00,
2013-09-08 09:22:00,74.0,68.0,29.89,SE,132,1.0,3.0,83,0.00,,,0.00,,2013-09-08 14:22:00,
2013-09-08 09:42:00,74.0,68.0,29.89,NNE,16,2.0,3.0,82,0.00,,,0.00,,2013-09-08 14:42:00,
2013-09-08 09:52:00,76.0,69.0,29.90,NE,39,3.0,6.0,79,0.00,,,0.00,,2013-09-08 14:52:00,
2013-09-08 10:23:00,78.0,70.0,29.90,NE,35,0.0,5.0,76,0.00,,,0.00,,2013-09-08 15:23:00,
2013-09-08 10:45:00,78.0,69.0,29.90,NE,44,1.0,6.0,74,0.00,,,0.00,,2013-09-08 15:45:00,
2013-09-08 10:55:00,80.0,70.0,29.90,SSE,154,1.0,5.0,72,0.00,,,0.00,,2013-09-08 15:55:00,
2013-09-08 11:14:00,81.0,69.0,29.90,ESE,107,0.0,3.0,67,0.00,,,0.00,,2013-09-08 16:14:00,
2013-09-08 11:23:00,82.0,69.0,29.90,ESE,119,0.0,3.0,65,0.00,,,0.00,,2013-09-08 16:23:00,
2013-09-08 11:53:00,82.0,69.0,29.90,South,183,0.0,5.0,64,0.00,,,0.00,,2013-09-08 16:53:00,
2013-09-08 12:12:00,82.0,69.0,29.89,South,180,1.0,3.0,64,0.00,,,0.00,,2013-09-08 17:12:00,
2013-09-08 12:23:00,81.0,69.0,29.90,South,171,1.0,6.0,66,0.00,,,0.00,,2013-09-08 17:23:00,
2013-09-08 12:53:00,82.0,70.0,29.88,NW,310,1.0,5.0,68,0.00,,,0.00,,2013-09-08 17:53:00,
2013-09-08 13:13:00,83.0,71.0,29.88,SSW,195,1.0,3.0,67,0.00,,,0.00,,2013-09-08 18:13:00,
2013-09-08 13:22:00,83.0,71.0,29.88,SSE,152,1.0,6.0,67,0.00,,,0.00,,2013-09-08 18:22:00,
2013-09-08 13:52:00,85.0,70.0,29.88,SW,224,0.0,5.0,61,0.00,,,0.00,,2013-09-08 18:52:00,
2013-09-08 14:12:00,86.0,69.0,29.88,NE,55,2.0,5.0,58,0.00,,,0.00,,2013-09-08 19:12:00,
2013-09-08 14:22:00,85.0,70.0,29.88,ENE,57,0.0,3.0,60,0.00,,,0.00,,2013-09-08 19:22:00,
2013-09-08 14:52:00,85.0,70.0,29.88,SSW,202,0.0,1.0,61,0.00,,,0.00,,2013-09-08 19:52:00,
2013-09-08 15:11:00,85.0,70.0,29.87,SSW,192,0.0,3.0,62,0.00,,,0.00,,2013-09-08 20:11:00,
2013-09-08 15:22:00,85.0,70.0,29.87,SE,130,0.0,5.0,62,0.00,,,0.00,,2013-09-08 20:22:00,
2013-09-08 15:53:00,85.0,70.0,29.85,SE,139,1.0,8.0,61,0.00,,,0.00,,2013-09-08 20:53:00,
2013-09-08 16:22:00,84.0,70.0,29.85,SE,140,0.0,6.0,64,0.00,,,0.00,,2013-09-08 21:22:00,
2013-09-08 16:54:00,84.0,70.0,29.84,SSE,150,1.0,6.0,63,0.00,,,0.00,,2013-09-08 21:54:00,
2013-09-08 17:13:00,84.0,70.0,29.84,SSE,150,1.0,5.0,62,0.00,,,0.00,,2013-09-08 22:13:00,
2013-09-08 17:24:00,84.0,69.0,29.84,SSE,163,0.0,6.0,61,0.00,,,0.00,,2013-09-08 22:24:00,
2013-09-08 17:53:00,84.0,70.0,29.84,SSE,153,0.0,3.0,63,0.00,,,0.00,,2013-09-08 22:53:00,
2013-09-08 18:22:00,83.0,70.0,29.84,SE,146,0.0,3.0,64,0.00,,,0.00,,2013-09-08 23:22:00,
2013-09-08 18:52:00,82.0,69.0,29.84,SSE,147,0.0,1.0,64,0.00,,,0.00,,2013-09-08 23:52:00,
2013-09-08 19:11:00,82.0,69.0,29.84,SSE,147,0.0,1.0,65,0.00,,,0.00,,2013-09-09 00:11:00,
2013-09-08 19:22:00,81.0,69.0,29.84,SE,146,0.0,0.0,67,0.00,,,0.00,,2013-09-09 00:22:00,
2013-09-08 19:52:00,79.0,69.0,29.85,SE,146,0.0,0.0,71,0.00,,,0.00,,2013-09-09 00:52:00,
2013-09-08 20:12:00,78.0,69.0,29.85,SE,146,0.0,0.0,73,0.00,,,0.00,,2013-09-09 01:12:00,
2013-09-08 20:21:00,78.0,69.0,29.86,SE,146,0.0,0.0,75,0.00,,,0.00,,2013-09-09 01:21:00,
2013-09-08 20:52:00,76.0,68.0,29.87,SE,146,0.0,0.0,77,0.00,,,0.00,,2013-09-09 01:52:00,
2013-09-08 21:22:00,75.0,68.0,29.87,SE,146,0.0,0.0,78,0.00,,,0.00,,2013-09-09 02:22:00,
2013-09-08 21:42:00,76.0,69.0,29.87,SE,146,0.0,0.0,78,0.00,,,0.00,,2013-09-09 02:42:00,
2013-09-08 21:53:00,76.0,68.0,29.87,SE,146,0.0,0.0,77,0.00,,,0.00,,2013-09-09 02:53:00,
2013-09-08 22:22:00,76.0,68.0,29.87,SE,146,0.0,1.0,77,0.00,,,0.00,,2013-09-09 03:22:00,
2013-09-08 22:55:00,75.0,69.0,29.88,NE,40,0.0,0.0,81,0.00,,,0.00,,2013-09-09 03:55:00,
2013-09-08 23:14:00,75.0,69.0,29.88,NE,40,0.0,0.0,81,0.00,,,0.00,,2013-09-09 04:14:00,
2013-09-08 23:24:00,75.0,69.0,29.87,ESE,113,0.0,1.0,82,0.00,,,0.00,,2013-09-09 04:24:00,
2013-09-08 23:54:00,74.0,68.0,29.88,ESE,113,0.0,0.0,83,0.00,,,0.00,,2013-09-09 04:54:00,